Location: *
(51.5000°N, 0.1100°W)
Time: 06:17:00
(UTC+00:00)

IDEFIX/ARIANE 42P - Pass Details

Date: 06 August 2024
Orbit: 782 x 799 km, 98.5° (Epoch: 08 September)

Event Time Altitude Azimuth Distance (km) Brightness Sun altitude
Rises 01:16:42 0° 19° (NNE) 3,284 7.4 -20.2°
Reaches altitude 10° 01:19:09 10° 27° (NNE) 2,351 6.2 -20.1°
Maximum altitude 01:24:04 43° 98° (E) 1,102 3.4 -19.8°
Enters shadow 01:26:33 26° 153° (SSE) 1,519 3.7 -19.7°
